Location: New Canada
(47.1017°N, 68.5042°W)
Time: 17:05:51
(UTC+00:00)

KKS-1 - Pass Details

Date: 01 May 2024
Orbit: 628 x 639 km, 98.1° (Epoch: 21 May)

Event Time Altitude Azimuth Distance (km) Brightness Sun altitude
Rises 03:21:36 0° 20° (NNE) 2,956 ? -25.8°
Reaches altitude 10° 03:23:56 10° 28° (NNE) 2,041 ? -25.9°
Enters shadow 03:26:56 33° 62° (ENE) 1,086 ? -26.0°
